Home   Weather   São Paulo   Past weeks

Flag for Brazil Past Weather in São Paulo, São Paulo, Brazil — Yesterday and Last 2 Weeks

Now
68 °F

Light rain. Partly sunny.


Feels Like: 68 °F
Forecast: 68 / 72 °F
Wind: 5 mph from East

Location: Sao Paulo Airport

Current Time: Jan 21, 2017 at 1:31:07 pm

Latest Report: Jan 21, 2017 at 12:29 pm


Visibility: 5 mi

Pressure: 30.15 "Hg (27.58 "Hg at 765m altitude)

Humidity: 88%

Dew Point: 64 °F

Location of São PauloLocation

Past Weather in São Paulo — Graph

°F

São Paulo Temperature Yesterday

Maximum temperature yesterday: 75 °F (at 4:00 pm)
Minimum temperature yesterday: 66 °F (at 12:00 am)
Average temperature yesterday: 68 °F

High & Low Weather Summary for the Past Weeks

 TemperatureHumidityPressure
High88 °F (Jan 8, 2:00 pm)94% (Jan 16, 11:01 pm)30.21 "Hg (Jan 16, 11:01 pm)
Low66 °F (Jan 13, 3:00 am)27% (Jan 20, 7:18 pm)29.86 "Hg (Jan 14, 5:00 pm)
Average73 °F78%30.00 "Hg
* Reported Jan 6 12:00 pm — Jan 21 12:29 pm, São Paulo, Weather by CustomWeather, © 2017

Note: Actual official high and low records may vary slightly from our data, if they occured in-between our weather recording intervals... More about our weather records

Advertising

São Paulo Weather History for the Previous 24 Hours

Scroll right to see more
 ConditionsComfort  
Time TempWeatherWind HumidityBarometerVisibility
12:29 pm
Sat, Jan 21
68 °FLight rain. Partly sunny.5 mph88%30.15 "Hg5 mi
12:03 pm68 °FRain. Fog.7 mph88%N/A3 mi
11:00 am72 °FPartly sunny.6 mph78%30.15 "HgN/A
10:00 am70 °FMostly cloudy.3 mph83%30.15 "HgN/A
9:00 am70 °FMore clouds than sun.5 mph83%30.15 "HgN/A
8:00 am68 °FBroken clouds.5 mph88%30.12 "Hg5 mi
7:00 am66 °FPartly sunny.2 mph94%30.12 "Hg5 mi
6:00 am66 °FLight rain. Clear.1 mph94%30.09 "Hg5 mi
5:34 am66 °FPassing clouds.1 mph94%30.09 "Hg6 mi
3:10 am68 °FLight rain. Mostly cloudy.7 mph88%30.09 "HgN/A
2:05 am68 °FLight rain. Partly cloudy.7 mph88%30.09 "HgN/A
1:00 am68 °FLight rain. Passing clouds.6 mph88%30.12 "Hg4 mi
12:00 am68 °FLight rain. Passing clouds.3 mph88%30.15 "Hg4 mi
11:04 pm
Fri, Jan 20
68 °FLight rain. Clear.6 mph88%30.15 "HgN/A
10:00 pm68 °FLight rain. Passing clouds.5 mph88%30.15 "Hg6 mi
9:00 pm68 °FRain. Overcast.3 mph88%30.12 "Hg5 mi
8:31 pm68 °FRain. Overcast.5 mph88%30.12 "Hg4 mi
8:09 pm68 °FHeavy rain. Overcast.3 mph88%30.12 "Hg2 mi
7:18 pm70 °FThunderstorms. Mostly cloudy.7 mph27%N/AN/A
6:00 pm75 °FBroken clouds.3 mph65%30.09 "HgN/A
5:00 pm75 °FScattered clouds.2 mph69%30.09 "HgN/A
4:00 pm75 °FScattered clouds.2 mph69%30.12 "HgN/A
3:00 pm72 °FLight rain. Broken clouds.5 mph78%30.12 "HgN/A
2:00 pm70 °FLight rain. Partly sunny.6 mph83%30.15 "HgN/A
1:00 pm70 °FLight rain. Broken clouds.6 mph83%30.18 "HgN/A
Weather by CustomWeather, © 2017

See weather overviewHow to use our weather pages